CLUSTER II-FM6 (SALSA)

Last updated on Oct. 29, 2020, 5:53 a.m. UTC

1 26411U 00041B   20305.13152041  .00000380  00000-0  00000+0 0  9996
2 26411 132.3612 344.1164 5927448 192.1521   0.8890  0.44251404 22257
UTC
Height (km)
Latitude
Longitude
Inclination
Orbital Period
UTC large
Height (km)
Speed (km/s)
/
Latitude / Longitude
Inclination (degrees)
Orbital Period (minutes)
Azimuth
Elevation
Range (km)
Doppler Factor
iOS Compass Heading
iOS Angle

Next 30 passes for location: Hong Kong

Rise time Rise Azimuth (degrees) Set time Set Azimuth (degrees) Duration Max altitude (degrees)

No matching passes for this satellites